Airfield :
LOGIN :

Register | Disclaimer

   EN    FR    IT 

 










Legend :    VFR   Marginal VFR   IFR   Intensive IFR   Very Intensive IFR
Visi :
Ceiling :
>= 8 km
>= 3000ft
5 to 8 km
1000 to 3000 ft
1500m to 5 km
500 to 1000 ft
800 to 1500m
200 to 500 ft
< 800m
< 200 ft
Symbols :   Thunderstorms  Fog  Heavy snow  Heavy precipitations  Wind > 20 kt
SIGMETs :     Misc.  Thunderstorms  Icing  Turbulence  Mountain Waves  Volcanic Ashes







- Airport Elevation : 239 ft
- IATA code : VRN


LIPX - Villafranca Int. Verona

CURRENT METAR :
  • 212120Z 18004KT 9999 SCT060 26/19 Q1011

EXPIRED METARs :
  • 212050Z VRB02KT 9999 FEW070 26/19 Q1011
  • 212020Z 05002KT CAVOK 25/19 Q1011
  • 211950Z VRB02KT CAVOK 24/19 Q1011
  • 211920Z VRB02KT CAVOK 26/18 Q1011
  • 211850Z 27004KT 230V290 CAVOK 27/18 Q1011

TAF TAF LIPX
Valid from the 21 at 21:00 until the 22 at 06:00 UTC


212000Z 2121/2206 VRB05KT 9999 SCT060
TEMPO 2121/2206 4000 TSRA
No reported NOTAMs for that airfield.



MET'MAP, your aeronautical weather chart ! - Copyright ORBIFLY December 2007 - Disclaimer

ORBIFLY MET'MAP TEAM :

Programming & Development : Alexandra Zaïnal
Concept & Development : Baudouin d'Aumeries
Co-Development & Prog : Marc-Olivier Méhu
Technical & hardware support : Manuel Goepfert

Contact : metmap@orbifly.com




SOURCES & CREDITS :

   NOAA